When you browse on this site, cookies collect data to enhance your experience and personalize the content and advertising you see.
Visit our Privacy Policy to learn more. By continuing to use the site, you agree to this use of cookies and data.
  • In France
  • List of Countries
  • For 7 days
  • Water Temperature
  • Satellite Maps
  • Weather Map
  • Weather Widgets
  • user-avatar
    Login

    Hourly Weather Sevan

    Today, 26 April, Friday

    Time Temperature Precipitation Wind Pressure Humidity
    00:00 +3°C° 0 mm 2 mps 645 mmHg 68%
    01:00 +3°C° 0 mm 2 mps 644 mmHg 68%
    02:00 +2°C° 0 mm 2 mps 644 mmHg 69%
    03:00 +3°C° 0 mm 2 mps 644 mmHg 68%
    04:00 +3°C° 0 mm 2 mps 644 mmHg 67%
    05:00 +3°C° 0 mm 2 mps 644 mmHg 67%
    06:00 +3°C° 0 mm 2 mps 644 mmHg 66%
    07:00 +5°C° 0 mm 2 mps 644 mmHg 61%
    08:00 +7°C° 0 mm 1 mps 645 mmHg 55%
    09:00 +9°C° 0 mm 1 mps 645 mmHg 50%
    10:00 +10°C° 0 mm 1 mps 645 mmHg 47%
    11:00 +11°C° 0 mm 1 mps 645 mmHg 45%
    12:00 +12°C° 0 mm 2 mps 644 mmHg 43%
    13:00 +12°C° 0 mm 1 mps 644 mmHg 42%
    14:00 +12°C° 0 mm 1 mps 644 mmHg 42%
    15:00 +13°C° 0 mm 1 mps 644 mmHg 42%
    16:00 +12°C° 0 mm 1 mps 644 mmHg 44%
    17:00 +11°C° 0 mm 1 mps 643 mmHg 46%
    18:00 +11°C° 0 mm 1 mps 643 mmHg 49%
    19:00 +9°C° 0 mm 1 mps 643 mmHg 52%
    20:00 +8°C° 0 mm 1 mps 643 mmHg 55%
    21:00 +6°C° 0 mm 1 mps 643 mmHg 59%
    22:00 +6°C° 0 mm 1 mps 643 mmHg 60%
    23:00 +6°C° 0 mm 1 mps 643 mmHg 61%

    Tomorrow, 27 April, Saturday

    Time Temperature Precipitation Wind Pressure Humidity
    00:00 +5°C° 0 mm 1 mps 643 mmHg 62%
    01:00 +5°C° 0 mm 1 mps 643 mmHg 63%
    02:00 +5°C° 0 mm 1 mps 643 mmHg 63%
    03:00 +4°C° 0 mm 1 mps 643 mmHg 64%
    04:00 +5°C° 0 mm 1 mps 643 mmHg 63%
    05:00 +5°C° 0 mm 1 mps 643 mmHg 63%
    06:00 +5°C° 0 mm 1 mps 643 mmHg 63%
    07:00 +7°C° 0 mm 1 mps 643 mmHg 57%
    08:00 +9°C° 0 mm 1 mps 643 mmHg 51%
    09:00 +9°C° 0 mm 2 mps 643 mmHg 45%
    10:00 +10°C° 0 mm 2 mps 643 mmHg 43%
    11:00 +12°C° 0 mm 2 mps 643 mmHg 41%
    12:00 +13°C° 0 mm 2 mps 643 mmHg 39%
    13:00 +14°C° 0 mm 2 mps 643 mmHg 38%
    14:00 +14°C° 0 mm 2 mps 643 mmHg 37%
    15:00 +14°C° 0 mm 2 mps 642 mmHg 36%
    16:00 +13°C° 0 mm 2 mps 642 mmHg 38%
    17:00 +13°C° 0 mm 2 mps 642 mmHg 40%
    18:00 +12°C° 0 mm 1 mps 641 mmHg 42%
    19:00 +10°C° 0 mm 1 mps 641 mmHg 43%
    20:00 +9°C° 0 mm 1 mps 641 mmHg 45%
    21:00 +8°C° 0 mm 1 mps 641 mmHg 46%
    22:00 +7°C° 0 mm 1 mps 641 mmHg 45%
    23:00 +7°C° 0 mm 1 mps 641 mmHg 45%

    Day after tomorrow, 28 April, Sunday

    Time Temperature Precipitation Wind Pressure Humidity
    00:00 +6°C° 0 mm 1 mps 641 mmHg 44%
    01:00 +6°C° 0 mm 1 mps 641 mmHg 43%
    02:00 +6°C° 0 mm 1 mps 640 mmHg 42%
    03:00 +6°C° 0 mm 1 mps 640 mmHg 41%
    04:00 +6°C° 0 mm 1 mps 640 mmHg 44%
    05:00 +6°C° 0 mm 1 mps 640 mmHg 46%
    06:00 +6°C° 0 mm 1 mps 640 mmHg 49%
    07:00 +7°C° 0 mm 2 mps 640 mmHg 46%
    08:00 +9°C° 0 mm 2 mps 640 mmHg 44%
    09:00 +12°C° 0 mm 2 mps 641 mmHg 42%
    10:00 +12°C° 0.1 mm 2 mps 641 mmHg 42%
    11:00 +13°C° 0.1 mm 2 mps 640 mmHg 43%
    12:00 +12°C° 0.1 mm 3 mps 640 mmHg 44%
    13:00 +12°C° 0.1 mm 3 mps 640 mmHg 44%
    14:00 +13°C° 0.1 mm 3 mps 640 mmHg 44%
    15:00 +13°C° 0.1 mm 3 mps 640 mmHg 44%
    16:00 +13°C° 0 mm 3 mps 640 mmHg 46%
    17:00 +13°C° 0 mm 2 mps 640 mmHg 49%
    18:00 +12°C° 0 mm 2 mps 639 mmHg 52%
    19:00 +10°C° 0 mm 2 mps 639 mmHg 54%
    20:00 +10°C° 0 mm 1 mps 639 mmHg 56%
    21:00 +8°C° 0 mm 1 mps 640 mmHg 57%
    22:00 +8°C° 0 mm 1 mps 640 mmHg 59%
    23:00 +8°C° 0 mm 1 mps 640 mmHg 61%

    29 April, Monday

    Time Temperature Precipitation Wind Pressure Humidity
    00:00 +8°C° 0 mm 1 mps 640 mmHg 63%
    01:00 +7°C° 0 mm 1 mps 640 mmHg 65%
    02:00 +7°C° 0 mm 1 mps 639 mmHg 67%
    03:00 +7°C° 0 mm 1 mps 639 mmHg 70%
    04:00 +7°C° 0 mm 1 mps 639 mmHg 70%
    05:00 +7°C° 0 mm 1 mps 640 mmHg 70%
    06:00 +8°C° 0 mm 1 mps 640 mmHg 71%
    07:00 +8°C° 0 mm 2 mps 640 mmHg 66%
    08:00 +10°C° 0 mm 2 mps 640 mmHg 62%
    09:00 +12°C° 0 mm 3 mps 641 mmHg 58%
    10:00 +13°C° 0.1 mm 3 mps 641 mmHg 56%
    11:00 +14°C° 0.1 mm 3 mps 641 mmHg 55%
    12:00 +16°C° 0.1 mm 3 mps 641 mmHg 53%
    13:00 +16°C° 0.3 mm 3 mps 641 mmHg 52%
    14:00 +15°C° 0.3 mm 4 mps 640 mmHg 52%
    15:00 +15°C° 0.3 mm 4 mps 640 mmHg 51%
    16:00 +14°C° 0.5 mm 3 mps 640 mmHg 55%
    17:00 +14°C° 0.5 mm 2 mps 640 mmHg 59%
    18:00 +14°C° 0.5 mm 2 mps 639 mmHg 62%
    19:00 +13°C° 0.3 mm 2 mps 640 mmHg 64%
    20:00 +12°C° 0.3 mm 1 mps 640 mmHg 66%
    21:00 +11°C° 0.3 mm 1 mps 640 mmHg 67%
    22:00 +10°C° 0.2 mm 1 mps 640 mmHg 67%
    23:00 +10°C° 0.2 mm 1 mps 640 mmHg 67%

    30 April, Tuesday

    Time Temperature Precipitation Wind Pressure Humidity
    00:00 +10°C° 0.2 mm 1 mps 640 mmHg 67%
    01:00 +9°C° 0.1 mm 1 mps 640 mmHg 68%
    02:00 +9°C° 0.1 mm 1 mps 640 mmHg 68%
    03:00 +8°C° 0.1 mm 2 mps 640 mmHg 69%
    04:00 +8°C° 0.1 mm 2 mps 640 mmHg 70%
    05:00 +8°C° 0.1 mm 2 mps 640 mmHg 70%
    06:00 +8°C° 0.1 mm 2 mps 640 mmHg 71%
    07:00 +10°C° 0 mm 2 mps 640 mmHg 66%
    08:00 +12°C° 0 mm 2 mps 641 mmHg 61%
    09:00 +13°C° 0 mm 3 mps 641 mmHg 56%
    10:00 +14°C° 0 mm 3 mps 641 mmHg 53%
    11:00 +15°C° 0 mm 4 mps 641 mmHg 51%
    12:00 +17°C° 0 mm 4 mps 641 mmHg 48%
    13:00 +17°C° 0.3 mm 4 mps 640 mmHg 49%
    14:00 +17°C° 0.3 mm 4 mps 640 mmHg 50%
    15:00 +17°C° 0.3 mm 4 mps 640 mmHg 50%
    16:00 +15°C° 0.3 mm 4 mps 639 mmHg 52%
    17:00 +14°C° 0.3 mm 3 mps 639 mmHg 54%
    18:00 +14°C° 0.3 mm 3 mps 639 mmHg 56%
    19:00 +14°C° 0.3 mm 2 mps 640 mmHg 58%
    20:00 +13°C° 0.3 mm 2 mps 640 mmHg 60%
    21:00 +12°C° 0.3 mm 2 mps 640 mmHg 62%
    22:00 +10°C° 0.2 mm 2 mps 640 mmHg 63%
    23:00 +10°C° 0.2 mm 2 mps 640 mmHg 64%

    1 May, Wednesday

    Time Temperature Precipitation Wind Pressure Humidity
    00:00 +10°C° 0.2 mm 1 mps 640 mmHg 64%
    01:00 +10°C° 0 mm 1 mps 639 mmHg 66%
    02:00 +9°C° 0 mm 1 mps 639 mmHg 67%
    03:00 +9°C° 0 mm 1 mps 639 mmHg 68%
    04:00 +9°C° 0 mm 1 mps 639 mmHg 69%
    05:00 +8°C° 0 mm 2 mps 639 mmHg 69%
    06:00 +9°C° 0 mm 2 mps 639 mmHg 69%
    07:00 +10°C° 0 mm 2 mps 639 mmHg 62%
    08:00 +12°C° 0 mm 3 mps 640 mmHg 56%
    09:00 +14°C° 0 mm 3 mps 640 mmHg 49%
    10:00 +16°C° 0 mm 3 mps 640 mmHg 46%
    11:00 +17°C° 0 mm 3 mps 640 mmHg 44%
    12:00 +18°C° 0 mm 4 mps 639 mmHg 42%
    13:00 +18°C° 0.2 mm 4 mps 639 mmHg 42%
    14:00 +19°C° 0.2 mm 4 mps 639 mmHg 42%
    15:00 +19°C° 0.2 mm 4 mps 639 mmHg 41%
    16:00 +18°C° 0.2 mm 3 mps 639 mmHg 43%
    17:00 +17°C° 0.2 mm 3 mps 639 mmHg 46%
    18:00 +17°C° 0.2 mm 3 mps 638 mmHg 48%
    19:00 +15°C° 0.1 mm 2 mps 638 mmHg 49%
    20:00 +14°C° 0.1 mm 2 mps 638 mmHg 50%
    21:00 +12°C° 0.1 mm 2 mps 638 mmHg 51%
    22:00 +12°C° 0 mm 2 mps 638 mmHg 51%
    23:00 +12°C° 0 mm 2 mps 638 mmHg 52%
    Show more